Location: Unspecified
(0.0000°N, 0.0000°E)
Time: 19:58:53
(UTC+00:00)

DMSP B5D2-3 - Pass Details

Date: 25 October 2019
Orbit: 821 x 839 km, 98.7° (Epoch: 19 November)

Event Time Altitude Azimuth Distance (km) Brightness Sun altitude
Rises 04:44:51 0° 127° (SE) 3,354 9.6 -14.5°
Reaches altitude 10° 04:49:05 10° 95° (E) 2,422 9.0 -13.5°
Maximum altitude 04:50:44 11° 77° (ENE) 2,323 8.5 -13.1°
Drops below altitude 10° 04:52:23 10° 58° (ENE) 2,422 8.3 -12.7°
Sets 04:56:35 0° 26° (NNE) 3,355 8.5 -11.6°
